www.pogodaiklimat.ru
Время
(UTC), дата
05:26 30.12
05:29 30.12
05:39 30.12
05:53 30.12
06:04 30.12
06:21 30.12
06:53 30.12
07:01 30.12
07:53 30.12
08:53 30.12
09:53 30.12
10:53 30.12
11:53 30.12
12:53 30.12
13:53 30.12
14:53 30.12
15:53 30.12
16:53 30.12
17:53 30.12
18:53 30.12
19:53 30.12
20:53 30.12
21:53 30.12
22:53 30.12
23:53 30.12
00:53 30.12
01:53 30.12
02:53 30.12
03:53 30.12
04:53 31.12
05:53 31.12
06:53 31.12
07:53 31.12
08:53 31.12
09:53 31.12
10:53 31.12
11:53 31.12
12:53 31.12
13:53 31.12
14:53 31.12
15:53 31.12
16:53 31.12
17:53 31.12
18:53 31.12
19:39 31.12
19:53 31.12
20:53 31.12
21:53 31.12
Ветер
(напр.,м/с)
Видим. Явления Облачность Т
(С)
Тd
(С)
f
(%)
Тe
(С)
Тes
(С)
Комфортность P
(гПа)
Po
(гПа)
Тmin
(С)
Tmax
(С)
R
(мм)
R24
(мм)
S
(см)
0 1 км дымка 10/10 90 м +13.3 +12.8 97 +13 +13 969.5
В 1 2 км дымка 10/10 90 м +13.3 +12.8 97 +13 +13 969.5
0 800 м туман 10/10 90 м +12.8 +12.2 96 +12 +12 969.5
ЮВ 1 800 м туман 10/10 60 м +12.8 +12.8 100 +12 +12 999.7 969.2
ЮВ 2 400 м туман ?/? +12.8 +12.2 96 +11 +11 968.9
ЮВ 2 800 м туман ?/? +12.8 +12.2 96 +11 +11 968.5
0 2 км дымка 8/5 30 м
[средняя]
+13.3 +12.8 97 +13 +13 998.5 968.2
ЮВ 3 14 км 10/2 30 м
[средняя]
+12.8 +12.2 96 +11 +11 967.9
Ю 4 16 км слабый дождь 10/8 1500 м
[средняя]
+13.9 +13.3 96 +12 +12 997.5 967.2
ЮЗ 7
{10}
16 км 10/0 2100 м
[средняя]
+15.0 +12.2 83 +13 +13 999.3 968.9
ЮЗ 6
{11}
16 км 10/2 750 м
[средняя]
+15.0 +11.1 77 +13 +13 1000.7 970.2
З 8
{13}
16 км 8/2 1110 м
[средняя]
+13.9 +5.6 57 +11 +11 1002.5 971.8 +12.8 +15.6 28.2
ЮЗ 4
{11}
16 км 2/2 1650 м +11.7 +5.0 63 +10 +10 1004.1 973.5
З 7
{10}
16 км 2/2 1650 м +11.7 +3.9 59 +9 +9 1005.1 974.4
ЮЗ 7
{13}
16 км 5/5 1260 м +11.7 +2.8 54 +9 +9 1005.7 974.8
ЮЗ 7
{11}
16 км 8/8 1410 м +11.7 +2.8 54 +9 +9 1005.5 974.8
ЮЗ 4
{13}
16 км 8/8 1410 м +11.7 +2.8 54 +9 +10 1005.2 974.4
ЮЗ 6
{10}
16 км 8/8 1350 м +12.2 +2.8 53 +10 +10 1004.6 973.8 +11.1 +13.3
З 5
{8}
16 км 8/8 1350 м +11.7 +2.8 54 +9 +10 1004.8 973.8
З 4
{10}
16 км 8/8 1380 м +11.7 +3.3 56 +10 +10 1005.0 974.1
З 8
{10}
16 км 5/5 1500 м +11.1 +1.7 52 +8 +8 1005.9 975.1
З 6
{9}
16 км ясно +8.3 -0.6 53 +4 +5 1006.8 976.1
З 7
{12}
16 км 5/5 1290 м +6.7 -1.1 57 +2 +2 1007.7 976.7
З 6
{9}
16 км 10/10 1260 м +6.7 -1.7 55 +2 +2 1008.7 977.7 +6.7 +13.3
З 5
{7}
16 км 10/10 1410 м +6.7 -1.7 55 +3 +3 1009.0 978.1
З 3 16 км 10/10 1200 м +6.1 -1.7 57 +3 +3 1009.1 978.1
З 4
{9}
16 км 10/10 990 м +5.0 -1.1 65 +1 +1 1009.8 978.7
нст 2 16 км 10/10 1500 м +5.0 -1.7 62 +2 +2 1009.4 978.1
Ю 3 16 км 10/10 1650 м +5.0 -1.1 65 +1 +1 1008.9 977.7
ЮЗ 4 16 км 10/10 1260 м +5.6 -1.7 59 +2 +2 1008.2 977.1 +5.0 +6.7
З 6
{10}
16 км слабый дождь 10/10 840 м +5.6 -1.1 62 +1 +1 1008.4 977.1
ЮЗ 4
{8}
16 км 10/10 1170 м +3.9 -1.1 70 -1 -1 1008.7 977.4
ЮЗ 4
{9}
16 км 10/10 1500 м +3.9 -1.7 67 -1 -1 1008.6 977.4
ЮЗ 4
{8}
16 км 10/10 990 м +4.4 -2.2 62 -0 -0 1008.4 977.1
ЮЗ 4
{9}
16 км 10/10 1110 м +3.9 -2.8 62 -1 -1 1008.6 977.1
З 4
{10}
16 км 10/10 1110 м +3.9 -3.3 59 -0 -0 1008.8 977.4 +3.9 +5.6
З 6
{9}
16 км 8/8 1020 м +3.9 -3.3 59 -1 -1 1008.8 977.4
ЮЗ 4
{9}
16 км 10/10 1170 м +3.9 -3.3 59 -0 -0 1009.2 977.7
ЮЗ 7
{12}
16 км 10/10 1110 м +3.9 -3.9 57 -2 -2 1009.2 977.7
ЮЗ 8
{14}
16 км 10/10 1020 м +3.9 -3.9 57 -2 -2 1009.3 977.7
ЮЗ 8
{14}
16 км 10/10 990 м +3.9 -3.9 57 -2 -2 1008.8 977.4
З 6
{11}
16 км 10/10 990 м +3.9 -3.9 57 -2 -2 1008.7 977.4 +3.9 +4.4
З 5
{10}
16 км 10/10 990 м +3.9 -3.9 57 -1 -1 1009.0 977.7
З 6
{14}
16 км 10/10 900 м +3.3 -3.3 62 -2 -2 1009.6 978.1
З 6
{10}
16 км 10/10 840 м +2.8 -2.8 67 -3 -3 978.7
З 4
{9}
16 км 10/10 840 м +2.8 -2.2 70 -2 -2 1010.4 978.7
З 4
{7}
16 км 10/10 840 м +2.8 -2.8 67 -2 -2 1010.7 979.0
З 4
{9}
16 км 10/10 840 м +2.8 -3.3 64 -2 -2 1011.4 979.7
Местоположение метеостанции Mid-Ohio Valley Regional Airport: широта 39.3450 долгота -81.4392 высота над уровнем моря 262 м.
В архиве по умолчанию представлена погода в Паркерсбурге за последние 1-2 суток. Обновление информации о фактической погоде в базе происходит ежечасно! Архивные данные за месяц целиком и за предыдущие месяцы Вы можете получить, выбрав интересующий диапазон дат из раскрывающегося списка и нажав кнопку "Ввод!".
Внимание! Архив погоды МЕТАР в базе сайта по станциям, не включенным в климатический монитор, хранится не более 60 дней. Нет смысла пытаться выбрать более раннюю дату.
*Определитесь, кто Вы:
Внимание! Время в таблицах - всемирное. Для получения местного времени необходимо прибавить поправку, которая равна ч.
Смотрите также архив погоды в соседних городах и на ближайших метеорологических станциях:
Партнеры нашего сайта:      
Пояснения к столбцам:
  • Ветер - указаны скорость ветра в м/с - средняя за 10 мин, порывы в срок и между сроками (в фигурных скобках) и направление, откуда дует ветер: С - северный,
  • СВ - северо-восточный, В - восточный, ЮВ - юго-восточный, Ю - южный, ЮЗ - юго-западный, З - западный, СЗ - северо-западный.
  • Видимость - горизонтальная дальность видимости в метрах или километрах. При видимости от 1 до 10 км при отсутствии осадков обычно наблюдается дымка, при ухудшении видимости до 1 км и менее - туман. В сухую погоду видимость может ухудшаться дымом, пылью или мглою.
  • Явления - указаны атмосферные явления, наблюдавшиеся в срок или в последний час перед сроком; фигурными скобками обозначены явления, наблюдавшиеся между сроками (за 1-3 часа до срока); квадратными скобками обозначены град или гололедные отложения с указанием их диаметра в мм.
  • Облачность - указаны через наклонную черту общая и нижняя облачность в баллах и высота нижней границы облаков в метрах; квадратными скобками обозначены формы облаков: Ci - перистые, Cs - перисто-слоистые, Cc - перисто-кучевые, Ac - высококучевые, As - высокослоистые, Sc - слоисто-кучевые, Ns - слоисто-дождевые, Cu - кучевые, Cb - кучево-дождевые. Подробнее классификацию облаков см. в Атласе облаков (PDF).
  • T - Температура воздуха - температура, измеренная на высоте 2 м над землей.
  • Td - Температура точки росы - температура, при понижении до которой содержащийся в воздухе водяной пар достигнет насыщения.
  • f - Относительная влажность воздуха - влажноcть воздуха, измеренная на высоте 2 м над землей.
  • Te - Эффективная температура - температура, которую ощущает одетый по сезону человек в тени. Характеристика душности погоды. При расчете учитывается влияние влажности воздуха и скорости ветра на теплоощущения человека.
  • Tes - Эффективная температура на солнце - температура, которую ощущает человек, с поправкой на солнечный нагрев. Характеристика знойности погоды. Зависит от высоты солнца над горизонтом, облачности и скорости ветра. Ночью, в пасмурную погоду, а также при ветре 12 м/с и более поправка равна нулю.
  • P - Атмосферное давление - приведенное к уровню моря атмосферное давление.
  • Po - Атмосферное давление - измеренное на уровне метеостанции атмосферное давление.
  • Tmin - Минимальная температура - минимум температуры воздуха на высоте 2 м над землей.
  • Tmax - Максимальная температура - максимум температуры воздуха на высоте 2 м над землей.
  • R - Количество осадков - Количество выпавших осадков за период времени, мм. При наведении курсора мыши на число - период времени, за который выпало указанное количество осадков.
  • R24 - Количество осадков - Количество выпавших осадков за 24 часа, мм.
  • S - Снежный покров - Высота снежного покрова, см. При наведении курсора мыши на число - состояние снежного покрова и степень покрытия местности в баллах.